Regional Weather Roundup
Issued by NWS

Home | Current Version | Previous Version | Text Only | Print | Product List | Glossary Off
Versions: 1 2 3 4 5 6 7 8 9 10 11 12 13 14 15 16 17 18 19 20 21 22 23 24 25 26 27 28 29 30 31 32 33 34 35 36 37 38 39 40 41 42 43 44 45 46 47 48 49 50

000
ASUS45 KCYS 201410
RWRWY

WYOMING REGIONAL WEATHER ROUNDUP
NATIONAL WEATHER SERVICE CHEYENNE WY
700 AM MST FRI JAN 20 2017

NOTE:  "FAIR" INDICATES FEW OR NO CLOUDS BELOW 12,000 FEET
WITH NO SIGNIFICANT WEATHER AND/OR OBSTRUCTIONS TO VISIBILITY.

WYZ001-201500-
YELLOWSTONE NATIONAL PARK

CITY           SKY/WX    TMP DP  RH WIND       PRES   REMARKS
LK YELLOWSTONE   N/A     18  17  96 CALM      29.53F
W YELLOWSTONE  NOT AVBL

$$
WYZ002>013-054>058-071-098>099-201500-
NORTHERN WYOMING

CITY           SKY/WX    TMP DP  RH WIND       PRES   REMARKS
JACKSON        CLOUDY    19  19 100 CALM      29.54F
CODY           FAIR      25  19  78 CALM      29.49S
GREYBULL       CLOUDY    25  21  85 NW3       29.51S
WORLAND        CLOUDY    26  24  92 SE6       29.50S WCI  19
SHERIDAN       CLOUDY    35  32  88 W12       29.48S WCI  27
BUFFALO        LGT SNOW  32  27  81 W3        29.47R
GILLETTE       CLOUDY    31  29  92 N3        29.45S
HULETT         CLOUDY    28  23  80 S5        29.45S WCI  23
NEWCASTLE      FAIR      23  19  86 NW9       29.43S WCI  13

$$
WYZ014>020-022>026-101>103-201500-
CENTRAL WYOMING

CITY           SKY/WX    TMP DP  RH WIND       PRES   REMARKS
BIG PINEY      FOG       -4  -6  91 E8        29.56S VSB 1/4 WCI -19
PINEDALE       FOG       -4  -6  92 CALM      29.56S VSB 1/4
DUBOIS         NOT AVBL
LANDER         FAIR      20  15  81 CALM      29.49S
RIVERTON       FAIR      16  11  80 W3        29.51R
CASPER         CLOUDY    29  27  92 SW13      29.48R WCI  19
DOUGLAS        CLOUDY    33  26  75 NW16      29.46R WCI  23

$$
WYZ021-027>030-104>119-201500-
SOUTHERN WYOMING

CITY           SKY/WX    TMP DP  RH WIND       PRES   REMARKS
EVANSTON       CLOUDY    23  17  78 CALM      29.56F
ROCK SPRINGS   CLOUDY    19  17  92 W7        29.56S FOG     WCI  10
RAWLINS        CLOUDY    25  20  81 SW7       29.51S WCI  17
LARAMIE        CLOUDY    23  20  88 NE3       29.45S
CHEYENNE       LGT SNOW  33  26  75 W7        29.46S WCI  27
TORRINGTON     FAIR      25  20  81 NW5       29.44S WCI  19

$$



USA.gov is the U.S. government's official web portal to all federal, state and local government web resources and services.